Starlink 11343

operational
NORAD ID: 62017 Int'l Des: 2024-213 Owner: SPXS Country: US Constellation: starlink
LEOCIRCULAR

About Starlink 11343

Description loading...

Live Position

Loading 3D Globe...

Upcoming Passes

Altitude History

Altitude vs Time

uPlot chart will show altitude changes over time

Two-Line Element Set

1 62017U 24213K 25353.65729747 .00185918 00000-0 15012-2 0 9996
2 62017 53.1576 75.9110 0001349 31.3402 328.7696 15.69776068 62349
Epoch: Dec 19, 2025 • Age: 18 hours

Current Status

Altitude 358.5 km
Velocity 7.70 km/s
Sub-Earth Point 3.56°N, 166.38°W
Launch Date Nov 18, 2024
Age 1 years
Type internet

Technical Details

Classification Payload
Mass 960.00 kg
Dry Mass 910.00 kg
Total Mass 960.00 kg
Length 0.30 m
Diameter 4.10 m
Span 29.00 m
Shape Box + pan
Manufacturer SPXS
Bus Type Starlink V2MD
Phase Status In Orbit
Owner/State SPXS/US

Large Constellations

Loading constellations...